Content
SEND FEEDBACK

Daily
Averages
Monthly
Summary
United States of America

SAN GREGORIO, CALIFORNIA


Home > North America > United States > California
Elevation: 553 feet     Latitude: 37 18N     Longitude: 122 20W

WEATHER
 
SELECT A DAY
Number of Records: 131,812;   Date Range: 1/1/95 - 12/16/14
 
SHARE

PRINT THIS DATA

[ ← Previous Day ]
WEATHER ALMANAC - FEBRUARY 5, 2013
[ Next Day → ]
[ °C ]   °F
Weather ElementAverageHighLow
Temperature49.9 °F55.4 °F (11:47 am)48.2 °F (12:35 am)
Dewpoint42.8 °F46.4 °F (4:48 pm)39.2 °F (7:47 am)
Humidity77 %87 % (11:35 pm)63 % (11:47 am)
Barometer30.13 in30.18 in (11:55 pm)30.10 in (5:35 am)
Wind Speed7.3 mph16.1 mph (12:51 pm)
Wind Gust18.4 mph (1:50 pm)
Weather ElementAverage
Visibility10 mi
Wind DirectionWNW (276.7 °)

Weather ElementTotal
Precipitation---
Heating Degree Days13.2 (Base 65)
Growing Degree Days1.8 (Base 50)
Averaged from 42 records on February 5, 2013
WEATHER CONDITIONS BREAKOUT
WIND DIRECTION BREAKOUT
WEATHER BY HOUR - FEBRUARY 5, 2013
[ °C ]   °F
Local TimeTemperatureDewpointHumidityBarometerVisibilityWind DirectionWind SpeedGust SpeedPrecipitationEventsConditions
12:35 AM48.2 °F42.8 °F82 %30.13 in10.0 miWNW (300°)4.6 mphOvercast
12:55 AM48.2 °F42.8 °F82 %30.12 in10.0 miNW (320°)5.8 mphOvercast
1:15 AM48.2 °F42.8 °F82 %30.12 in10.0 miNW (310°)4.6 mphOvercast
1:35 AM48.2 °F42.8 °F82 %30.13 in10.0 miNW (310°)3.5 mphOvercast
1:55 AM48.2 °F42.8 °F82 %30.13 in10.0 miWest (280°)4.6 mphOvercast
2:15 AM48.2 °F42.8 °F82 %30.13 in10.0 miWNW (300°)6.9 mphOvercast
2:35 AM48.2 °F41.0 °F76 %30.12 in10.0 miWest (260°)4.6 mphOvercast
2:55 AM48.2 °F41.0 °F76 %30.12 in10.0 miWest (260°)4.6 mphOvercast
3:15 AM48.2 °F41.0 °F76 %30.12 in10.0 miWSW (250°)4.6 mphOvercast
3:35 AM48.2 °F41.0 °F76 %30.12 in10.0 miWSW (250°)4.6 mphOvercast
3:55 AM48.2 °F41.0 °F76 %30.11 in10.0 miSW (230°)5.8 mphOvercast
4:15 AM48.2 °F41.0 °F76 %30.12 in10.0 miWSW (250°)4.6 mphOvercast
4:35 AM48.2 °F41.0 °F76 %30.11 in10.0 miWest (270°)3.5 mphOvercast
4:55 AM48.2 °F41.0 °F76 %30.11 in10.0 miWest (260°)4.6 mphOvercast
5:15 AM48.2 °F41.0 °F76 %30.11 in10.0 miWSW (250°)4.6 mphOvercast
5:35 AM48.2 °F41.0 °F76 %30.10 in10.0 miSW (230°)4.6 mphOvercast
5:55 AM48.2 °F41.0 °F76 %30.10 in10.0 miWest (270°)3.5 mphOvercast
6:15 AM48.2 °F41.0 °F76 %30.11 in10.0 miNW (310°)8.1 mphOvercast
6:35 AM48.2 °F41.0 °F76 %30.11 in10.0 miWest (270°)4.6 mphOvercast
6:47 AM48.2 °F41.0 °F76 %30.11 in10.0 miWest (270°)5.8 mphOvercast
6:55 AM48.2 °F41.0 °F76 %30.11 in10.0 miWNW (300°)4.6 mphOvercast
7:47 AM48.2 °F39.2 °F71 %30.13 in10.0 miWest (280°)5.8 mphOvercast
8:52 AM50.0 °F41.0 °F71 %30.14 in10.0 miWSW (250°)5.8 mphOvercast
10:47 AM53.6 °F42.8 °F67 %30.15 in10.0 miWNW (300°)9.2 mphOvercast
11:47 AM55.4 °F42.8 °F63 %30.14 in10.0 miWest (270°)11.5 mphOvercast
12:51 PM55.4 °F44.6 °F67 %30.12 in10.0 miWest (280°)16.1 mphOvercast
1:50 PM55.4 °F44.6 °F67 %30.11 in10.0 miWest (280°)12.7 mph18.4 mphMostly Cloudy
2:58 PM55.4 °F44.6 °F67 %30.11 in10.0 miWNW (290°)12.7 mph18.4 mphMostly Cloudy
4:48 PM55.4 °F46.4 °F72 %30.12 in10.0 miWest (270°)10.4 mphMostly Cloudy
5:47 PM53.6 °F46.4 °F77 %30.11 in10.0 miWest (280°)13.8 mphScattered Clouds
6:47 PM53.6 °F46.4 °F77 %30.12 in10.0 miWest (260°)10.4 mphScattered Clouds
7:50 PM51.8 °F44.6 °F76 %30.13 in10.0 miWest (270°)13.8 mph18.4 mphPartly Cloudy
8:50 PM50.0 °F44.6 °F82 %30.15 in10.0 miWest (280°)12.7 mph18.4 mphPartly Cloudy
9:15 PM50.0 °F44.6 °F82 %30.15 in10.0 miWest (280°)11.5 mphClear
9:35 PM50.0 °F44.6 °F82 %30.15 in10.0 miWest (280°)9.2 mphClear
9:55 PM50.0 °F44.6 °F82 %30.16 in10.0 miWest (280°)8.1 mph16.1 mphClear
10:15 PM50.0 °F44.6 °F82 %30.16 in10.0 miWest (280°)8.1 mphClear
10:35 PM50.0 °F44.6 °F82 %30.17 in10.0 miWNW (290°)6.9 mphClear
10:55 PM50.0 °F44.6 °F82 %30.17 in10.0 miWNW (290°)9.2 mphClear
11:15 PM50.0 °F44.6 °F82 %30.17 in10.0 miWNW (300°)8.1 mphClear
11:35 PM48.2 °F44.6 °F87 %30.17 in10.0 miWest (270°)4.6 mphClear
11:55 PM48.2 °F42.8 °F82 %30.18 in10.0 miWNW (290°)4.6 mphClear
Hourly data recorded from KSQL, located miles away from San Gregorio, California







STORIES FROM OUR PARTNERS